[[{"header":{"parameterUnit":"m.s-1","parameterCategory":1,"la1":30.2991,"la2":30.254,"lo1":-89.0895,"lo2":-89.0444,"dy":0.0017,"dx":0.0017,"nx":28,"ny":28,"refTime":"2024-03-05T03:00:00:Z","depth":0,"parameterNumber":2,"parameterNumberName":"U-component_of_WINDS"},"data":[0,0,0,0,0,0,0,0,0,0,0,0,0,0,0,0,0,0,0,0,0,0,0,0,0,0,0,0,0,0,0,0,0,0,0,0,0,0,0,0,0,0,0,0,0,0,0,0,0,0,0,0,0,0,0,0,0,0,-1.308,-1.3079,0,-1.2994,-1.2993,-1.2992,-1.2919,-1.2918,-1.2918,-1.2917,-1.2829,-1.2827,-1.2826,0,0,0,0,0,0,0,0,0,0,0,0,0,-1.3182,-1.3181,-1.308,-1.3079,-1.3078,-1.2994,-1.2993,-1.2992,-1.2919,-1.2918,-1.2917,-1.2916,-1.2829,-1.2828,-1.2826,0,0,0,0,0,0,0,0,0,0,0,0,0,-1.3121,-1.318,-1.308,-1.3032,-1.3026,-1.2995,-1.2993,-1.2992,-1.292,-1.2918,-1.2917,-1.2916,-1.283,-1.2828,-1.2825,-1.2835,0,0,-1.2818,-1.2817,0,0,0,0,0,0,0,0,-1.3125,-1.3118,-1.304,-1.3035,-1.3029,-1.2966,-1.2997,-1.2939,-1.292,-1.296,-1.2917,-1.2915,-1.2876,-1.2869,-1.2856,-1.2831,-1.2827,-1.2818,-1.2817,-1.2816,-1.2815,0,0,0,0,0,0,0,-1.3129,-1.3121,-1.3046,-1.3039,-1.3032,-1.3015,-1.3005,-1.2986,-1.2926,-1.2957,-1.2951,-1.2942,-1.2872,-1.2858,-1.2853,-1.2826,-1.2818,-1.2816,-1.2814,-1.2814,-1.2807,-1.2808,0,0,0,0,0,0,-1.3141,-1.3125,-1.3049,-1.3044,-1.3075,-1.3014,-1.3002,-1.2988,-1.2926,-1.2915,-1.2943,-1.2939,-1.2863,-1.2856,-1.285,-1.2858,-1.2816,-1.2813,-1.2812,-1.2805,-1.2807,-1.2808,0,0,0,0,0,0,-1.3143,-1.3135,-1.3052,-1.3083,-1.3071,-1.3013,-1.2997,-1.2987,-1.2972,-1.2915,-1.2905,-1.294,-1.2862,-1.2853,-1.284,-1.2854,-1.2812,-1.281,-1.2804,-1.2806,-1.2808,-1.2875,0,0,0,0,0,0,-1.3147,-1.3136,-1.3139,-1.3083,-1.307,-1.3043,-1.2998,-1.2986,-1.2969,-1.2962,-1.2909,-1.29,-1.286,-1.2844,-1.2837,-1.285,-1.2808,-1.2802,-1.2805,-1.2807,-1.2871,-1.2879,-1.2885,0,0,0,0,0,-1.3151,-1.3161,-1.3139,-1.313,-1.3072,-1.3044,-1.3036,-1.2991,-1.297,-1.2973,-1.2936,-1.2901,-1.2854,-1.2843,-1.2835,-1.2848,-1.2801,-1.2804,-1.2807,-1.2868,-1.2877,-1.2885,0,0,0,0,0,0,-1.3218,-1.3152,-1.3128,-1.312,-1.3089,-1.3032,-1.3033,-1.3002,-1.2975,-1.2971,-1.2915,-1.2904,-1.2897,-1.2871,-1.286,-1.2855,-1.2823,-1.2824,-1.2872,-1.288,-1.2888,-1.2894,-1.2806,0,0,0,0,0,-1.3233,-1.3216,-1.3159,-1.3158,-1.3143,-1.3092,-1.3078,-1.3046,-1.3011,-1.2997,-1.2959,-1.2927,-1.2905,-1.2891,-1.2867,-1.2867,-1.2855,-1.2872,-1.2879,-1.2885,-1.2887,-1.2887,-1.2894,-1.2817,-1.2817,-1.2817,0,0,-1.3262,-1.3223,-1.3216,-1.3171,-1.3142,-1.3127,-1.308,-1.3065,-1.3053,-1.2994,-1.2979,-1.2951,-1.2911,-1.2905,-1.29,-1.2883,-1.2906,-1.2889,-1.2894,-1.2892,-1.289,-1.2898,-1.2904,-1.2819,-1.2819,-1.2819,0,0,-1.3306,-1.3275,-1.3272,-1.3245,-1.3203,-1.3169,-1.3168,-1.3117,-1.3096,-1.308,-1.3036,-1.3021,-1.2984,-1.2958,-1.294,-1.2978,-1.2945,-1.2971,-1.3009,-1.3009,-1.3015,-1.302,-1.3035,-1.304,-1.2973,-1.2974,-1.2974,0,-1.3348,-1.3322,-1.3274,-1.3262,-1.3244,-1.3191,-1.3187,-1.3163,-1.3116,-1.3105,-1.3086,-1.304,-1.3009,-1.2996,-1.3006,-1.2993,-1.2991,-1.2977,-1.3018,-1.3023,-1.3027,-1.304,-1.3046,-1.2977,-1.2977,-1.2976,-1.2976,0,-1.3375,-1.3359,-1.3361,-1.3317,-1.3299,-1.3292,-1.3243,-1.3231,-1.3202,-1.317,-1.3156,-1.3117,-1.3086,-1.3081,-1.3051,-1.3065,-1.3055,-1.3028,-1.2995,-1.3038,-1.305,-1.3055,-1.2982,-1.2981,-1.298,-1.2979,0,0,-1.3459,-1.339,-1.3392,-1.3372,-1.3323,-1.3309,-1.33,-1.327,-1.3261,-1.3231,-1.3222,-1.3193,-1.3169,-1.3148,-1.3115,-1.3116,-1.315,-1.3088,-1.3087,-1.3102,-1.3164,-1.3186,-1.3192,-1.3128,-1.3129,-1.3129,-1.3168,0,-1.3496,-1.3477,-1.3434,-1.3428,-1.3413,-1.3363,-1.3355,-1.3325,-1.3295,-1.3279,-1.3246,-1.3227,-1.3195,-1.3183,-1.3181,-1.3146,-1.3162,-1.3143,-1.312,-1.312,-1.3132,-1.3198,-1.3219,-1.3258,-1.3172,-1.3173,-1.3173,0,-1.3537,-1.3511,-1.3503,-1.3457,-1.3449,-1.3442,-1.3412,-1.3396,-1.3361,-1.334,-1.3319,-1.3283,-1.3272,-1.3242,-1.3227,-1.3215,-1.3203,-1.3185,-1.3186,-1.3182,-1.315,-1.3197,-1.3269,-1.3275,-1.318,-1.3179,-1.3179,0,-1.36,-1.3563,-1.3554,-1.3538,-1.3484,-1.3481,-1.3458,-1.3422,-1.3407,-1.3381,-1.3371,-1.3344,-1.3329,-1.3309,-1.3268,-1.325,-1.3258,-1.3224,-1.324,-1.3242,-1.3244,-1.3244,-1.3316,-1.3236,-1.3236,-1.3236,-1.3236,0,-1.3646,-1.3644,-1.3582,-1.3576,-1.3573,-1.3525,-1.3523,-1.3495,-1.3464,-1.3453,-1.3408,-1.3399,-1.3345,-1.333,-1.3297,-1.329,-1.3284,-1.3267,-1.3258,-1.3271,-1.3273,-1.3263,-1.3259,-1.3238,-1.3237,-1.3237,-1.3237,0,-1.3716,-1.3674,-1.3661,-1.3611,-1.3599,-1.3599,-1.3556,-1.3549,-1.3518,-1.3505,-1.3499,-1.345,-1.343,-1.3387,-1.3355,-1.3334,-1.3335,-1.3319,-1.3347,-1.3342,-1.3361,-1.336,-1.3429,-1.3436,-1.3352,-1.3352,-1.3353,0,-1.3749,-1.3746,-1.3696,-1.3686,-1.3665,-1.3648,-1.3633,-1.3587,-1.3573,-1.3534,-1.3533,-1.351,-1.3488,-1.3459,-1.3421,-1.3397,-1.3381,-1.3407,-1.3377,-1.3391,-1.3382,-1.3383,-1.3383,-1.3413,-1.3414,-1.3415,-1.3416,0,-1.3811,-1.3791,-1.3771,-1.3745,-1.3728,-1.3705,-1.3679,-1.3674,-1.3621,-1.3608,-1.3587,-1.3571,-1.354,-1.3518,-1.3488,-1.3465,-1.3433,-1.3426,-1.3429,-1.3442,-1.3458,-1.3451,-1.3366,-1.3424,-1.3424,-1.3423,-1.3423,-1.3422,-1.3863,-1.3859,-1.3824,-1.3804,-1.378,-1.3758,-1.375,-1.3718,-1.37,-1.3671,-1.3645,-1.3627,-1.3594,-1.3551,-1.3531,-1.3517,-1.35,-1.3504,-1.3505,-1.3507,-1.3513,-1.3461,-1.3511,-1.3511,-1.3511,-1.351,-1.351,0,-1.3925,-1.39,-1.3882,-1.3848,-1.3833,-1.3804,-1.3774,-1.3764,-1.3749,-1.3721,-1.3701,-1.3679,-1.3658,-1.3619,-1.3595,-1.3591,-1.3576,-1.3587,-1.3586,-1.3582,-1.3528,-1.3529,-1.36,-1.36,-1.36,-1.36,-1.36,-1.36,-1.3954,-1.3947,-1.3923,-1.3903,-1.3878,-1.3861,-1.3847,-1.3827,-1.3804,-1.3781,-1.3764,-1.3739,-1.3707,-1.368,-1.366,-1.3649,-1.3643,-1.3659,-1.3643,-1.3594,-1.3586,-1.3578,-1.3578,-1.3658,-1.3658,-1.3698,-1.3698,-1.3699]},{"header":{"parameterUnit":"m.s-1","parameterCategory":1,"la1":30.2991,"la2":30.254,"lo1":-89.0895,"lo2":-89.0444,"dy":0.0017,"dx":0.0017,"nx":28,"ny":28,"refTime":"2024-03-05T03:00:00:Z","depth":0,"parameterNumber":3,"parameterNumberName":"V-component_of_WINDS"},"data":[0,0,0,0,0,0,0,0,0,0,0,0,0,0,0,0,0,0,0,0,0,0,0,0,0,0,0,0,0,0,0,0,0,0,0,0,0,0,0,0,0,0,0,0,0,0,0,0,0,0,0,0,0,0,0,0,0,0,2.5685,2.5685,0,2.571,2.5711,2.5711,2.5758,2.5759,2.576,2.5761,2.5784,2.5784,2.5784,0,0,0,0,0,0,0,0,0,0,0,0,0,2.5676,2.5676,2.5685,2.5686,2.5686,2.571,2.5711,2.5711,2.5758,2.5759,2.576,2.5761,2.5785,2.5784,2.5784,0,0,0,0,0,0,0,0,0,0,0,0,0,2.5688,2.5676,2.5685,2.5712,2.5715,2.571,2.5711,2.5711,2.5758,2.5759,2.5761,2.5762,2.5785,2.5784,2.5784,2.5754,0,0,2.5783,2.5783,0,0,0,0,0,0,0,0,2.5688,2.5689,2.5708,2.571,2.5713,2.5733,2.5716,2.5726,2.5758,2.5741,2.5761,2.5763,2.5766,2.5767,2.5769,2.5755,2.5756,2.5783,2.5783,2.5782,2.5782,0,0,0,0,0,0,0,2.5687,2.5688,2.5695,2.5708,2.5712,2.5723,2.5726,2.5718,2.5746,2.5743,2.5746,2.5749,2.5768,2.5769,2.577,2.5757,2.5783,2.5783,2.5782,2.5782,2.572,2.5718,0,0,0,0,0,0,2.5682,2.5687,2.5694,2.5696,2.5704,2.5722,2.5725,2.5725,2.5746,2.575,2.5748,2.5751,2.5769,2.577,2.5771,2.5737,2.5782,2.5782,2.5782,2.5721,2.5719,2.5718,0,0,0,0,0,0,2.5682,2.5682,2.5693,2.5692,2.5695,2.572,2.572,2.5725,2.5726,2.5749,2.5754,2.5744,2.577,2.5771,2.5758,2.5738,2.5782,2.5782,2.5723,2.572,2.5718,2.5669,0,0,0,0,0,0,2.5681,2.5682,2.5671,2.5692,2.5694,2.568,2.5718,2.5724,2.5726,2.573,2.5747,2.5752,2.5771,2.5758,2.5758,2.5738,2.5781,2.5725,2.5722,2.5719,2.5672,2.5665,2.5659,0,0,0,0,0,2.5681,2.5656,2.567,2.5671,2.5682,2.5679,2.5681,2.5705,2.5724,2.5713,2.5728,2.5751,2.5741,2.5757,2.5756,2.5737,2.5726,2.5723,2.5719,2.5675,2.5666,2.5659,0,0,0,0,0,0,2.5631,2.5659,2.5675,2.5656,2.5665,2.5687,2.5674,2.5695,2.5698,2.5702,2.5731,2.5734,2.5717,2.5726,2.5743,2.5709,2.5737,2.5733,2.5703,2.5695,2.5689,2.5686,2.5781,0,0,0,0,0,2.5618,2.5615,2.5639,2.562,2.5623,2.5648,2.5648,2.5666,2.5675,2.5679,2.5693,2.5701,2.57,2.5698,2.5699,2.5674,2.5678,2.5661,2.5654,2.5648,2.5644,2.5632,2.5624,2.5707,2.5707,2.5707,0,0,2.5591,2.5606,2.5601,2.561,2.5619,2.5614,2.5651,2.5644,2.564,2.5678,2.5666,2.5677,2.5688,2.5669,2.5661,2.5676,2.5623,2.5644,2.564,2.5639,2.5627,2.562,2.5613,2.5705,2.5705,2.5705,0,0,2.5538,2.555,2.5535,2.5543,2.5556,2.5573,2.557,2.5589,2.5597,2.5586,2.5615,2.5611,2.5608,2.5615,2.5617,2.5568,2.5589,2.5568,2.5532,2.5519,2.5513,2.5507,2.5489,2.5482,2.5564,2.5564,2.5564,0,2.5502,2.5496,2.5524,2.5515,2.5518,2.5554,2.5538,2.5545,2.5557,2.5558,2.5574,2.5572,2.5582,2.5564,2.5552,2.5554,2.555,2.5565,2.5512,2.5506,2.5501,2.5484,2.5477,2.5561,2.5561,2.5562,2.5562,0,2.5451,2.5447,2.5433,2.5445,2.5446,2.5434,2.5459,2.5457,2.5475,2.549,2.5478,2.5491,2.5495,2.5492,2.5509,2.5477,2.5486,2.5507,2.5535,2.549,2.5474,2.5468,2.5557,2.5558,2.5559,2.556,0,0,2.5366,2.5395,2.5389,2.5395,2.5412,2.5409,2.5399,2.5403,2.54,2.5408,2.5399,2.5396,2.5416,2.5419,2.5438,2.5426,2.5385,2.5449,2.5449,2.5435,2.535,2.5333,2.5325,2.54,2.5399,2.5398,2.5348,0,2.5317,2.5301,2.5326,2.5304,2.5299,2.5334,2.5324,2.5334,2.5348,2.5346,2.5361,2.5358,2.5385,2.5387,2.5377,2.5392,2.5368,2.5396,2.5391,2.539,2.5386,2.5317,2.5299,2.5251,2.5342,2.5341,2.5341,0,2.5256,2.5261,2.5239,2.5259,2.5258,2.5249,2.5255,2.5253,2.5264,2.5275,2.5279,2.5301,2.5292,2.5321,2.5307,2.5326,2.5325,2.5332,2.5331,2.533,2.5362,2.5312,2.5237,2.5229,2.5331,2.5332,2.5333,0,2.5195,2.5197,2.5184,2.5188,2.521,2.5203,2.5212,2.5225,2.5226,2.5231,2.5232,2.5235,2.5237,2.5239,2.5261,2.528,2.5245,2.5275,2.5252,2.5251,2.5242,2.5242,2.5163,2.5244,2.5244,2.5244,2.5244,0,2.5136,2.5121,2.5157,2.5148,2.5132,2.5161,2.5144,2.5157,2.5168,2.5162,2.5192,2.5186,2.5217,2.5213,2.5231,2.5217,2.5217,2.5225,2.523,2.5222,2.522,2.5221,2.5224,2.5242,2.5243,2.5243,2.5243,0,2.5065,2.5088,2.5076,2.5099,2.5104,2.5091,2.511,2.5103,2.5119,2.5112,2.5111,2.5136,2.5134,2.5157,2.516,2.5171,2.5149,2.516,2.5145,2.5148,2.5123,2.5124,2.504,2.503,2.5118,2.5117,2.5116,0,2.5025,2.5014,2.5036,2.5034,2.5042,2.504,2.5041,2.5069,2.5069,2.5082,2.5073,2.5073,2.5075,2.507,2.5088,2.509,2.51,2.5071,2.5101,2.5093,2.5099,2.5098,2.5097,2.5064,2.5063,2.5062,2.5061,0,2.4951,2.4964,2.4965,2.497,2.4971,2.4976,2.4983,2.498,2.5011,2.5009,2.5008,2.5009,2.5012,2.5012,2.5017,2.5026,2.5048,2.5052,2.5047,2.5038,2.5029,2.5032,2.5126,2.5054,2.5054,2.5055,2.5055,2.5056,2.4894,2.4885,2.49,2.49,2.4908,2.4914,2.4909,2.4925,2.4924,2.4929,2.4946,2.4941,2.4953,2.4963,2.4969,2.4966,2.498,2.4972,2.497,2.4968,2.4963,2.5031,2.4967,2.4967,2.4968,2.4968,2.4968,0,2.4821,2.4832,2.4832,2.4841,2.4841,2.4864,2.4873,2.4871,2.4867,2.4876,2.4878,2.4876,2.4876,2.4895,2.4897,2.489,2.4901,2.489,2.489,2.4891,2.495,2.4954,2.4882,2.4882,2.4882,2.4882,2.4882,2.4882,2.4782,2.477,2.4784,2.4775,2.4787,2.4783,2.4786,2.4792,2.48,2.4796,2.4797,2.4809,2.4822,2.4826,2.4827,2.4832,2.4831,2.4816,2.4825,2.4879,2.4887,2.4895,2.4899,2.4816,2.4816,2.4766,2.4766,2.4766]}]]